Location: Days
(41.3591°N, 106.7339°W)
Time: 20:08:16
(UTC+00:00)

AIST 2D - Pass Details

Date: 04 July 2022
Orbit: 433 x 443 km, 97.0° (Epoch: 17 August)

Event Time Altitude Azimuth Distance (km) Brightness Sun altitude
Rises 04:48:02 0° 9° (N) 2,426 ? -17.7°
Reaches altitude 10° 04:50:03 10° 7° (N) 1,554 ? -17.9°
Maximum altitude 04:53:22 73° 284° (WNW) 464 ? -18.2°
Enters shadow 04:54:29 38° 208° (SSW) 681 ? -18.4°
